Flag for U.S.A. Weather past 2 weeks in Pittsburgh, Pennsylvania, U.S.A.

Now
77 °F

Sunny.


Feels Like: 78 °F
Forecast: 53 / 81 °F
Wind: 6 mph from Southeast

Location: Allegheny County Airport

Current Time: Aug 29, 2014 at 3:15:47 PM

Latest Report: Aug 29, 2014 at 2:53 PM


Visibility: 10 mi

Pressure: 30.14 "Hg

Humidity: 37%

Dew point: 49 °F

Location of PittsburghLocation

Historic Weather in Pittsburgh — Graph

°F

Pittsburgh temperature yesterday

Maximum temperature yesterday: 73 °F (at 3:53 PM)
Minimum temperature yesterday: 58 °F (at 6:53 AM)
Average temperature yesterday: 65 °F

Past Weeks' High & Low Weather Summary

 TemperatureHumidityPressure
High85 °F (Aug 27, 3:53 PM)100% (Aug 23, 9:04 AM)30.19 "Hg (Aug 23, 9:04 AM)
Low48 °F (Aug 16, 6:01 AM)32% (Aug 14, 4:53 PM)29.80 "Hg (Aug 18, 6:53 PM)
Average70 °F70%30.02 "Hg
* Reported Aug 14 1:53 PM — Aug 29 1:53 PM, Pittsburgh, Weather by CustomWeather, © 2014

Note: Actual official high and low records may vary slightly from our data, if they occured in-between our weather recording intervals... More about our weather records

Advertising

Pittsburgh weather history for previous 24 hours

 ConditionsComfort  
Time TempWeatherWind HumidityBarometerVisibility
1:53 PM
Aug 29
74 °FSunny.No wind38%30.15 "Hg10 mi
12:53 PM73 °FSunny.7 mph50%30.16 "Hg10 mi
11:53 AM70 °FSunny.5 mph57%30.17 "Hg10 mi
10:53 AM67 °FSunny.5 mph61%30.18 "Hg10 mi
9:53 AM62 °FSunny.6 mph70%30.18 "Hg10 mi
8:53 AM57 °FSunny.No wind81%30.19 "Hg10 mi
7:53 AM54 °FSunny.No wind86%30.19 "Hg10 mi
6:53 AM52 °FClear.No wind89%30.17 "Hg8 mi
5:53 AM54 °FClear.5 mph86%30.15 "Hg10 mi
4:53 AM56 °FClear.3 mph77%30.15 "Hg10 mi
3:53 AM57 °FClear.3 mph74%30.14 "Hg10 mi
2:53 AM57 °FClear.5 mph74%30.14 "Hg10 mi
1:53 AM58 °FClear.5 mph75%30.14 "Hg10 mi
12:53 AM60 °FClear.5 mph67%30.16 "Hg10 mi
11:53 PM
Aug 28
61 °FClear.3 mph67%30.16 "Hg10 mi
10:53 PM61 °FClear.6 mph70%30.14 "Hg10 mi
9:53 PM63 °FClear.5 mph63%30.13 "Hg10 mi
8:53 PM64 °FSunny.5 mph63%30.11 "Hg10 mi
7:53 PM67 °FSunny.3 mph53%30.09 "Hg10 mi
6:53 PM71 °FSunny.7 mph45%30.08 "Hg10 mi
5:53 PM72 °FPassing clouds.8 mph41%30.08 "Hg10 mi
4:53 PM73 °FPassing clouds.6 mph44%30.08 "Hg10 mi
3:53 PM73 °FSunny.7 mph44%30.09 "Hg10 mi
Weather by CustomWeather, © 2014

See weather overviewHow to use our weather pages